DELTA 1 DEB, 21445

Orbit data source: Space-Track

DELTA 1 DEB, 21445 is space debris in SSO originally from a launch on Thu, 12 Jun 1975 UTC launched from the Air Force Western Test Range (AFWTR). Debris objects in space refer to the collection of defunct objects orbiting the Earth. Examples of debris include non-operational satellites, rocket bodies, and fragments generated from explosions, collisions, or faulty payload assembly.

Loading next visibility...
Identifier
21445, 1975-052ED
Orbit
SSO
Country
Flag of USUS
Related business
Manufacturer
Unknown
Mission
Spacecraft
Bus & Motor
Unknown
Mass
Unknown
Launch date (UTC)
1975-06-12 (50 years ago)
Launch vehicle
Unknown
Launch site
Air Force Western Test Range (AFWTR)
Object type
Payload
Rocket body
Debris
Shape & HBR
Unknown shape, 0.2 m
Radar Cross Section
Small (<0.1 m²)

Expand to show TLE details & history
Last TLE update: 6 hours ago

TLE from 6 hours ago
0 DELTA 1 DEB
1 21445U 75052ED  25287.88291449  .00000014  00000-0  11902-3 0  9995
2 21445  99.6725 314.9619 0080902 315.0170 121.4790 13.28539513670169
Epoch: 2025-10-14T21:11Z
TLE epoch observation values (Epoch: 2025-10-14T21:11:23.811Z)
Latitude
74.13484°
Longitude
-63.18482°
Altitude
1,197.092 km
Speed
7.246 km/s
True Right ascension
18h 33m 19s
True Declination
74° 02' 58"
Sunlit
Object was in daylight at epoch
Visualization orbit readout
Latitude
Unknown
Longitude
Unknown
Altitude
Unknown
Speed
Unknown
Apparent Right ascension
Unknown
Apparent Declination
Unknown
Sunlit
N/A
Visualization observer readout
Local Sidereal Time
22:15:09
Azimuth
Unknown
Elevation
Unknown
Doppler factor
Unknown
Orbital elements
Apogee altitude
1,210.506 km
Perigee altitude
1,088.705 km
Semi-major axis
7,527.743 km
Eccentricity
0.00809
Inclination
99.6725°
RAAN
314.9619°
Arg. of periapsis
315.017°
True anomaly
122.26545°
Mean anomaly
121.479°
Eccentric anomaly
121.87264°
Mean motion
3.32312 °/min
Orbital period
108.33 mins
BSTAR
0.00011902
Loading maneuver chart data...
Computing Atmospheric mass density...
Loading historical data...
Loading historical data...
Loading historical data...
Loading historical data...
Loading historical data...
Loading historical data...
Loading historical data...

Documentation

Showing up to 5 results
|